Regional Weather Roundup
Issued by NWS Northern Indiana

Home | Current Version | Previous Version | Graphics & Text | Print | Product List | Glossary On
Versions: 1 2 3 4 5 6 7 8 9 10 11 12 13 14 15 16 17 18 19 20 21 22 23 24 25 26 27 28 29 30 31 32 33 34 35 36 37 38 39 40 41 42 43 44 45 46 47 48 49 50
000
ASUS43 KIWX 301010
RWRIWX

KIWX WEATHER ROUNDUP
NATIONAL WEATHER SERVICE NORTHERN INDIANA
600 AM EDT SAT MAY 30 2015

NOTE: "FAIR" INDICATES FEW OR NO CLOUDS BELOW 12,000 FEET WITH NO
SIGNIFICANT WEATHER AND/OR OBSTRUCTIONS TO VISIBILITY.

* THESE STATIONS ARE NOT UNDER NWS QUALITY CONTROL. THEY ALSO MAY NOT
  REPORT WEATHER SUCH AS PRECIPITATION OR FOG.

INZ001>027-301100-
NORTHERN INDIANA

CITY           SKY/WX    TMP DP  RH WIND       PRES   REMARKS
GARY*          CLOUDY    70  66  88 SW7       29.96R
VALPARAISO     RAIN      68  67  96 SW10      29.99R FOG
MICHIGAN CITY* CLOUDY    66  66 100 S3        29.97R
LAPORTE*       CLOUDY    70  68  94 SW8       29.98R
KNOX*          CLOUDY    68  68 100 SW6       29.98R
SOUTH BEND     LGT RAIN  69  65  86 SW9       29.97R
GOSHEN         MOCLDY    69  65  86 SW8       29.98R
MONTICELLO*    CLOUDY    68  66  94 S6        29.99R
LOGANSPORT*    CLOUDY    68  63  83 S6        30.01R
ROCHESTER*     MOCLDY    72  66  83 S5        30.00R
WARSAW*        MOCLDY    68  64  88 SW3       29.99S
ANGOLA*        CLOUDY    70  61  73 SW5       29.99R
FORT WAYNE     CLOUDY    68  65  90 S8        30.01R
HUNTINGTON*    PTCLDY    67  64  91 CALM      30.00S
PERU/GRISSOM   PTCLDY    66  64  94 S6        29.99R
MARION*        CLEAR     65  63  90 S5        30.02R

$$
INZ028>050-301100-
CENTRAL INDIANA

CITY           SKY/WX    TMP DP  RH WIND       PRES   REMARKS
LAFAYETTE      CLOUDY    66  64  93 CALM      29.99R
KOKOMO*        PTCLDY    66  63  88 S6        30.01R
MUNCIE*        CLEAR     69  65  86 S5        30.02R
INDIANAPOLIS   PTCLDY    68  65  90 S9        30.00R

$$
MIZ043>046-050>051-056>058-064>065-071>073-077>080-301100-
SOUTHWEST LOWER MICHIGAN

CITY           SKY/WX    TMP DP  RH WIND       PRES   REMARKS
BATTLE CREEK   CLOUDY    69  65  86 SW9       29.97R
BENTON HARBOR  CLOUDY    68  65  90 SW8       29.95R
COLDWATER*     MOCLDY    68  64  85 SW3       29.98R
HILLSDALE*     MOCLDY    69  67  93 SW6       29.99S
HOLLAND        CLOUDY    62  60  93 W8        29.95R
GRAND RAPIDS   CLOUDY    68  65  90 SW9       29.94R
KALAMAZOO      CLOUDY    69  65  86 SW7       29.96R
STURGIS*       CLOUDY    70  66  88 S7        29.98R
THREE RIVERS*  MOCLDY    70  64  80 SW5       29.97R

$$
OHZ001>008-015>018-024>025-301100-
NORTHWEST OHIO

CITY           SKY/WX    TMP DP  RH WIND       PRES   REMARKS
WAUSEON*       FAIR      68  68 100 SW9       29.99S
DEFIANCE       CLEAR     68  64  87 S5        30.00R
FINDLAY        CLEAR     69  66  90 S9        30.01S
TOLEDO EXPRESS PTCLDY    67  64  90 S7        29.99S
TOLEDO METCALF CLEAR     70  64  81 S9        30.01R
LIMA           CLEAR     69  65  86 S9        30.03S

$$
AND FOR LAKE MICHIGAN COASTAL AND OPEN LAKE BUOY OBSERVATIONS

STATION/POSITION TEMP    WIND        PRES    VSBY  WAVE
                 AIR SEA DIR/SP/G                  HT/PER
                 (F)     (DEG/KT/KT) (MB)    (MI)  (FT/S)
CALUMET HARBOR    69     220/  4/  7   N/A
MICHIGAN CITY     68     180/ 11/ 13   N/A
BURNS HARBOR      69     200/ 11/ 17 1014.9R
SAINT JOSEPH      67     180/  8/ 14 1014.6R
SOUTH LAKE BUOY   46 38  180/  4/  4 1014.2R         1
4 MI NW BRIDGMAN  62 58  230/  6/  6   N/A           1/ 2
MICHIGAN CITY     61 56  220/  6/  8   N/A           1

$$
&&



USA.gov is the U.S. government's official web portal to all federal, state and local government web resources and services.